Hourly Data Report for September 30, 2017

All times are specified in Local Standard Time (LST). Add 1 hour to adjust for Daylight Saving Time where and when it is observed.

GRAND MANAN SAR CS
NEW BRUNSWICK

44°42'43.400" N
66°48'06.900" W
78.20 m
8101925
71030
XGM

Download Data

Hourly Data (September 2017)
Hourly Data Report for September 30, 2017
Temp Definition
°C
Dew Point Temp Definition
°C
Rel Hum Definition
%
Wind Dir Definition
10's deg

Wind Spd Definition
km/h
Visibility Definition
km
Stn Press Definition
kPa
Hmdx Definition


Wind Chill Definition


Weather Definition


TIME
00:00 7.8 3.4 74 36 9   100.99     LegendNANA
01:00 7.2 3.2 75 1 9   101.03     LegendNANA
02:00 6.8 3.5 79 2 9   101.05     LegendNANA
03:00 7.1 4.5 83 4 11   101.07     LegendNANA
04:00 7.4 4.5 82 5 10   101.12     LegendNANA
05:00 6.8 4.8 87 5 10   101.18     LegendNANA
06:00 7.0 5.0 87 3 7   101.27     LegendNANA
07:00 7.9 5.2 83 5 8   101.35     LegendNANA
08:00 8.4 4.5 77 4 11   101.41     LegendNANA
09:00 9.4 4.8 73 4 15   101.47     LegendNANA
10:00 10.4 5.2 70 4 19   101.50     LegendNANA
11:00 10.5 2.5 58 3 20   101.51     LegendNANA
12:00 11.8 3.7 58 3 15   101.52     LegendNANA
13:00 12.3 2.1 50 5 18   101.51     LegendNANA
14:00 11.6 1.5 50 1 6   101.51     LegendNANA
15:00 11.9 0.8 46 3 12   101.49     LegendNANA
16:00 11.5 0.9 48 35 11   101.48     LegendNANA
17:00 10.8 1.3 52 4 11   101.48     LegendNANA
18:00 7.8 2.8 70 3 4   101.53     LegendNANA
19:00 3.9 2.3 89 36 2   101.56     LegendNANA
20:00 1.7 0.9 94 30 2   101.61     LegendNANA
21:00 0.2 -0.3 96 30 5   101.63     LegendNANA
22:00 -1.0 -1.3 98 30 5   101.67   -3 LegendNANA
23:00 -1.1 -1.3 99 30 5   101.66   -3 LegendNANA

Notes on Data Quality.

Legend

  • E = Estimated
  • M = Missing
  • NA = Not Available
  • ‡ = Partner data that is not subject to review by the National Climate Archives
Date modified: